Weather History for KMRN - April, 2013

Change the Weather History Date:

Tuesday, April 30, 2013

  Actual Average (KHKY) Record (KHKY)
Temperature  
Mean Temperature 65 °F -  
Max Temperature 72 °F 74 °F 88 °F (1987)
Min Temperature 57 °F 51 °F 35 °F (2008)
Growing Degree Days 15 (Base 50)    
Moisture  
Dew Point 58 °F    
Average Humidity 84    
Maximum Humidity 100    
Minimum Humidity 54    
Precipitation  
Precipitation 0.02 in - - ()
Sea Level Pressure  
Sea Level Pressure 30.14 in    
Wind  
Wind Speed 2 mph (NE)    
Max Wind Speed 7 mph    
Max Gust Speed -    
Visibility 8 miles    
Events Rain    
Averages and records for this station are not official NWS values.
T = Trace of Precipitation, MM = Missing Value Source: NWS Daily Summary

Daily Weather History Graph

Daily Weather History Graph

Search for Another Location

Airport or City:

Trip Planner

Search our weather history database for the weather conditions in past years. The results will help you decide how hot, cold, wet, or windy it might be!

Date:

Astronomy

Apr. 30, 2013 Rise Set
Actual Time 6:35 AM EDT 8:12 PM EDT
Civil Twilight 6:07 AM EDT 8:40 PM EDT
Nautical Twilight 5:34 AM EDT 9:13 PM EDT
Astronomical Twilight 5:00 AM EDT 9:47 PM EDT
Moon 12:32 AM EDT (4/30) 11:04 AM EDT (4/30)
Length of Visible Light 14h 32m
Length of Day
13h 37m
Waning Gibbous, 70% of the Moon is Illuminated
Apr 30
Waning Gibbous
May 2
Last Quarter
May 9
New
May 18
First Quarter
May 25
Full

Hourly Weather History & Observations

Time (EDT) Temp. Dew Point Humidity Pressure Visibility Wind Dir Wind Speed Gust Speed Precip Events Conditions
12:15 AM 60.4 °F 58.5 °F 93% 30.06 in 10.0 mi North 3.5 mph - N/A   Mostly Cloudy
12:35 AM 60.3 °F 58.5 °F 94% 30.06 in 10.0 mi North 3.5 mph - N/A   Overcast
12:55 AM 60.6 °F 58.6 °F 93% 30.06 in 10.0 mi Calm Calm - N/A   Overcast
1:15 AM 59.9 °F 58.6 °F 96% 30.06 in 10.0 mi Calm Calm - 0.01 in Rain Rain
1:35 AM 60.1 °F 59.4 °F 97% 30.06 in 10.0 mi Calm Calm - 0.02 in   Light Drizzle
1:55 AM 59.5 °F 59.2 °F 99% 30.05 in 10.0 mi Calm Calm - 0.02 in   Overcast
2:15 AM 59.4 °F 59.0 °F 99% 30.05 in 10.0 mi Calm Calm - N/A   Overcast
2:35 AM 59.5 °F 59.2 °F 99% 30.05 in 10.0 mi Calm Calm - N/A   Overcast
2:55 AM 59.4 °F 59.0 °F 99% 30.05 in 10.0 mi Calm Calm - N/A   Overcast
3:15 AM 59.2 °F 59.0 °F 99% 30.05 in 7.0 mi Calm Calm - N/A   Overcast
3:35 AM 59.2 °F 59.0 °F 99% 30.06 in 10.0 mi Calm Calm - N/A   Overcast
3:55 AM 59.2 °F 59.0 °F 99% 30.07 in 10.0 mi Calm Calm - N/A   Overcast
4:15 AM 59.0 °F 58.5 °F 98% 30.07 in 7.0 mi North 3.5 mph - N/A   Overcast
4:35 AM 58.6 °F 58.5 °F 99% 30.07 in 7.0 mi NNE 3.5 mph - N/A   Overcast
4:55 AM 58.6 °F 58.5 °F 99% 30.08 in 5.0 mi Calm Calm - N/A   Overcast
5:15 AM 58.6 °F 58.6 °F 100% 30.09 in 5.0 mi Calm Calm - N/A   Overcast
5:35 AM 58.6 °F 58.6 °F 100% 30.09 in 5.0 mi Calm Calm - N/A   Overcast
5:55 AM 58.6 °F 58.6 °F 100% 30.10 in 5.0 mi Calm Calm - N/A   Overcast
6:15 AM 58.6 °F 58.6 °F 100% 30.10 in 4.0 mi North 3.5 mph - N/A   Overcast
6:35 AM 58.5 °F 58.5 °F 100% 30.11 in 5.0 mi North 4.6 mph - N/A   Overcast
6:55 AM 58.5 °F 58.5 °F 100% 30.12 in 3.0 mi North 4.6 mph - N/A   Overcast
7:15 AM 58.3 °F 58.3 °F 100% 30.13 in 2.5 mi NNE 3.5 mph - N/A   Overcast
7:35 AM 58.3 °F 58.3 °F 100% 30.14 in 2.0 mi North 3.5 mph - N/A Rain Rain
7:55 AM 58.3 °F 58.3 °F 100% 30.14 in 3.0 mi NNE 3.5 mph - N/A   Overcast
8:15 AM 58.3 °F 58.3 °F 100% 30.15 in 4.0 mi NE 3.5 mph - N/A   Overcast
8:35 AM 58.3 °F 58.1 °F 99% 30.15 in 4.0 mi Calm Calm - N/A   Overcast
8:55 AM 58.5 °F 58.3 °F 99% 30.16 in 5.0 mi NNE 3.5 mph - N/A   Overcast
9:15 AM 58.6 °F 58.3 °F 99% 30.16 in 5.0 mi NNE 4.6 mph - N/A   Overcast
9:35 AM 58.6 °F 58.3 °F 99% 30.17 in 4.0 mi North 3.5 mph - N/A   Overcast
9:55 AM 58.6 °F 58.3 °F 99% 30.17 in 2.0 mi NNE 3.5 mph - N/A   Overcast
10:15 AM 59.0 °F 58.5 °F 98% 30.17 in 5.0 mi North 4.6 mph - N/A   Overcast
10:35 AM 59.9 °F 58.6 °F 96% 30.17 in 7.0 mi NNE 3.5 mph - N/A   Overcast
10:55 AM 61.0 °F 58.8 °F 93% 30.17 in 10.0 mi Calm Calm - N/A   Overcast
11:15 AM 61.3 °F 58.3 °F 90% 30.17 in 10.0 mi Calm Calm - N/A   Overcast
11:35 AM 61.9 °F 58.3 °F 88% 30.17 in 10.0 mi Calm Calm - N/A   Overcast
11:55 AM 62.2 °F 58.1 °F 86% 30.17 in 10.0 mi Calm Calm - N/A   Overcast
12:15 PM 62.4 °F 58.3 °F 86% 30.17 in 10.0 mi North 3.5 mph - N/A   Overcast
12:35 PM 63.7 °F 58.1 °F 82% 30.17 in 10.0 mi North 3.5 mph - N/A   Mostly Cloudy
12:55 PM 64.8 °F 58.3 °F 79% 30.17 in 10.0 mi NNW 4.6 mph - N/A   Overcast
1:15 PM 68.2 °F 58.6 °F 71% 30.16 in 10.0 mi East 5.8 mph - N/A   Overcast
1:35 PM 68.5 °F 59.2 °F 72% 30.15 in 10.0 mi NW 4.6 mph - N/A   Mostly Cloudy
1:55 PM 68.2 °F 57.6 °F 69% 30.15 in 10.0 mi Calm Calm - N/A   Mostly Cloudy
2:15 PM 68.4 °F 56.8 °F 67% 30.15 in 10.0 mi SSE 3.5 mph - N/A   Overcast
2:35 PM 68.4 °F 56.8 °F 67% 30.14 in 10.0 mi Calm Calm - N/A   Overcast
2:55 PM 69.3 °F 56.5 °F 64% 30.14 in 10.0 mi Calm Calm - N/A   Overcast
3:15 PM 68.7 °F 57.6 °F 67% 30.13 in 10.0 mi NE 3.5 mph - N/A   Overcast
3:35 PM 69.3 °F 57.0 °F 65% 30.12 in 10.0 mi East 3.5 mph - N/A   Mostly Cloudy
3:55 PM 72.9 °F 57.0 °F 57% 30.11 in 10.0 mi SE 5.8 mph - N/A   Scattered Clouds
4:15 PM 72.7 °F 55.8 °F 55% 30.11 in 10.0 mi South 5.8 mph - N/A   Scattered Clouds
4:35 PM 70.5 °F 55.4 °F 59% 30.12 in 10.0 mi SE 3.5 mph - N/A   Clear
4:55 PM 70.5 °F 55.8 °F 59% 30.12 in 10.0 mi East 5.8 mph - N/A   Scattered Clouds
5:15 PM 72.5 °F 55.4 °F 55% 30.13 in 10.0 mi East 5.8 mph - N/A   Scattered Clouds
5:35 PM 72.5 °F 55.2 °F 54% 30.14 in 10.0 mi East 6.9 mph - N/A   Mostly Cloudy
5:55 PM 71.8 °F 56.1 °F 58% 30.14 in 10.0 mi SE 5.8 mph - N/A   Scattered Clouds
6:15 PM 72.0 °F 55.4 °F 56% 30.15 in 10.0 mi ESE 6.9 mph - N/A   Scattered Clouds
6:35 PM 71.2 °F 55.8 °F 58% 30.16 in 10.0 mi East 4.6 mph - N/A   Clear
6:55 PM 70.3 °F 55.6 °F 59% 30.16 in 10.0 mi East 4.6 mph - N/A   Clear
7:15 PM 69.4 °F 55.2 °F 60% 30.16 in 10.0 mi East 5.8 mph - N/A   Scattered Clouds
7:35 PM 68.0 °F 55.9 °F 65% 30.17 in 10.0 mi ESE 5.8 mph - N/A   Scattered Clouds
7:55 PM 66.9 °F 56.1 °F 68% 30.17 in 10.0 mi East 3.5 mph - N/A   Scattered Clouds
8:15 PM 65.7 °F 56.5 °F 72% 30.19 in 10.0 mi East 3.5 mph - N/A   Mostly Cloudy
8:35 PM 64.4 °F 56.5 °F 75% 30.19 in 10.0 mi East 5.8 mph - N/A   Scattered Clouds
8:55 PM 63.0 °F 56.7 °F 80% 30.20 in 10.0 mi ENE 3.5 mph - N/A   Clear
9:15 PM 62.6 °F 56.5 °F 80% 30.20 in 10.0 mi East 3.5 mph - N/A   Clear
9:35 PM 62.1 °F 56.3 °F 81% 30.21 in 10.0 mi East 4.6 mph - N/A   Clear
9:55 PM 61.7 °F 55.6 °F 80% 30.22 in 10.0 mi East 6.9 mph - N/A   Clear
10:15 PM 60.8 °F 55.4 °F 82% 30.23 in 10.0 mi ENE 4.6 mph - N/A   Clear
10:35 PM 60.3 °F 55.2 °F 83% 30.23 in 10.0 mi ENE 3.5 mph - N/A   Clear
10:55 PM 59.9 °F 55.4 °F 85% 30.23 in 10.0 mi Calm Calm - N/A   Clear
11:15 PM 59.0 °F 55.6 °F 88% 30.24 in 10.0 mi ENE 3.5 mph - N/A   Clear
11:35 PM 57.6 °F 55.0 °F 91% 30.24 in 10.0 mi Calm Calm - N/A   Scattered Clouds